Content
SEND FEEDBACK

Daily
Averages
Monthly
Summary
United States of America

GOLFVIEW, FLORIDA


Home > North America > United States > Florida
Elevation: 20 feet     Latitude: 26 40N     Longitude: 080 07W

WEATHER
 
SELECT A DAY
Number of Records: 188,519;   Date Range: 1/1/95 - 4/22/14
 
SHARE

PRINT THIS DATA

[ ← Previous Day ]
WEATHER ALMANAC - FEBRUARY 13, 2013
[ Next Day → ]
[ °C ]   °F
Weather ElementAverageHighLow
Temperature76.6 °F86 °F (1:53 pm)69.1 °F (1:53 am)
Dewpoint67.8 °F70 °F (8:53 am)66 °F (5:53 pm)
Humidity75.7 %93 % (1:53 am)53 % (2:53 pm)
Barometer29.95 in30.01 in (9:53 am)29.88 in (3:53 pm)
Wind Speed10.3 mph17.3 mph (5:53 pm)
Wind Gust21.9 mph (5:53 pm)
Weather ElementAverage
Visibility10 mi
Wind DirectionSSW (193.9 °)

Weather ElementTotal
Precipitation---
Cooling Degree Days12.6 (Base 65)
Growing Degree Days27.6 (Base 50)
Averaged from 23 records on February 13, 2013
WEATHER CONDITIONS BREAKOUT
WIND DIRECTION BREAKOUT
WEATHER BY HOUR - FEBRUARY 13, 2013
[ °C ]   °F
Local TimeTemperatureDewpointHumidityBarometerVisibilityWind DirectionWind SpeedGust SpeedPrecipitationEventsConditions
1:53 AM69.1 °F66.9 °F93 %29.99 in10.0 miSouth (190°)5.8 mphPartly Cloudy
2:53 AM69.1 °F66.9 °F93 %29.97 in10.0 miSouth (190°)5.8 mphPartly Cloudy
3:53 AM69.1 °F66.9 °F93 %29.97 in10.0 miSouth (170°)5.8 mphPartly Cloudy
4:53 AM70.0 °F68.0 °F93 %29.97 in10.0 miSouth (180°)5.8 mphMostly Cloudy
5:53 AM70.0 °F68.0 °F93 %29.98 in10.0 miSouth (180°)5.8 mphScattered Clouds
6:53 AM70.0 °F68.0 °F93 %29.98 in10.0 miSouth (180°)4.6 mphScattered Clouds
7:53 AM71.1 °F69.1 °F93 %29.98 in10.0 miSouth (180°)5.8 mphPartly Cloudy
8:53 AM75.9 °F70.0 °F82 %30.00 in10.0 miSouth (190°)11.5 mphPartly Cloudy
9:53 AM80.1 °F68.0 °F67 %30.01 in10.0 miSouth (170°)16.1 mph20.7 mphScattered Clouds
10:53 AM82.0 °F68.0 °F62 %30.00 in10.0 miSouth (190°)12.7 mphMostly Cloudy
11:53 AM84.0 °F66.9 °F56 %29.98 in10.0 miSSW (210°)13.8 mph18.4 mphMostly Cloudy
12:53 PM81.0 °F70.0 °F69 %29.95 in10.0 miSouth (170°)11.5 mphMostly Cloudy
1:53 PM86.0 °F69.1 °F57 %29.91 in10.0 miSSE (160°)13.8 mphMostly Cloudy
2:53 PM86.0 °F66.9 °F53 %29.89 in10.0 miSW (230°)13.8 mph19.6 mphMostly Cloudy
3:53 PM82.0 °F70.0 °F67 %29.88 in10.0 miSouth (170°)13.8 mphScattered Clouds
4:53 PM82.0 °F70.0 °F67 %29.88 in10.0 miSouth (170°)12.7 mphScattered Clouds
5:53 PM82.0 °F66.0 °F58 %29.89 in10.0 miSW (220°)17.3 mph21.9 mphScattered Clouds
6:53 PM80.1 °F66.9 °F64 %29.91 in10.0 miSSW (210°)15.0 mph20.7 mphPartly Cloudy
7:53 PM78.1 °F66.9 °F68 %29.91 in10.0 miSW (220°)10.4 mphPartly Cloudy
8:53 PM75.0 °F66.0 °F73 %29.94 in10.0 miSW (230°)10.4 mphPartly Cloudy
9:53 PM73.9 °F66.9 °F79 %29.96 in10.0 miWSW (240°)10.4 mphPartly Cloudy
10:53 PM73.0 °F66.9 °F81 %29.96 in10.0 miSSW (200°)8.1 mphPartly Cloudy
11:53 PM72.0 °F68.0 °F87 %29.96 in10.0 miSSW (210°)6.9 mphPartly Cloudy
Hourly data recorded from KPBI, located 1.92 miles away from Golfview, Florida







STORIES FROM OUR PARTNERS